GEFSCGP_500_meanwind_132.txt.gz
Wind_Speed
21 23 24 25 26 25 24 24 23 23 23 21 19 18 17 16 15 13 13 12 11 9 8 7 6 6 4 4 3 3 2 3 4 5 6 6 7 8 10 11 12 13 14 15
21 23 24 25 26 25 25 25 24 23 22 20 20 18 17 16 15 14 13 12 11 10 8 7 7 6 5 4 4 4 3 3 4 5 6 7 8 9 10 10 11 12 14 16
20 22 24 25 26 26 26 26 24 23 22 21 21 20 19 18 17 15 13 13 12 10 9 8 8 7 6 5 5 5 4 4 4 5 6 7 8 9 10 10 11 13 14 15
21 22 23 24 25 25 25 26 25 24 22 22 22 20 20 19 18 16 14 13 12 11 10 9 8 8 7 7 6 6 5 4 4 5 6 7 8 9 9 10 11 13 14 15
20 22 22 23 24 25 25 25 25 24 23 22 22 20 19 18 18 17 15 13 13 12 11 10 9 9 8 8 7 7 6 5 4 4 5 6 7 8 9 10 11 12 13 14
19 20 21 22 23 25 24 24 24 24 24 22 22 21 20 18 17 17 16 14 13 12 12 12 11 10 9 9 8 8 6 5 4 4 5 5 6 7 8 9 11 12 12 13
18 19 20 21 22 24 24 24 23 23 24 23 22 21 20 18 18 17 16 15 14 13 13 12 12 11 11 10 9 8 7 6 5 4 4 4 5 6 7 9 10 11 12 13
16 18 19 21 21 22 23 24 23 22 23 22 22 21 19 19 18 18 17 17 15 14 14 13 13 12 11 11 10 10 8 7 5 4 3 3 4 5 6 8 9 10 11 12
15 16 18 20 20 21 22 22 22 21 21 21 20 19 18 18 18 18 17 17 15 15 15 15 14 13 13 12 11 10 9 8 6 4 3 2 2 3 4 6 8 9 10 11
15 16 17 18 20 20 21 22 21 20 19 20 20 19 18 18 18 17 17 16 16 15 15 15 15 14 14 13 12 11 10 9 7 5 4 2 1 2 3 5 6 8 9 10
14 15 16 18 18 19 20 21 21 21 20 19 18 19 18 18 17 17 16 16 16 15 15 15 15 15 14 14 13 12 11 9 8 6 5 3 1 1 2 4 5 6 8 9
14 15 15 16 18 19 19 20 21 21 20 19 18 18 19 18 17 17 16 16 16 16 16 16 15 15 15 15 14 13 12 10 9 7 6 4 3 2 2 3 4 6 7 8
14 15 15 16 17 18 18 19 21 21 20 20 20 18 19 19 18 18 17 16 16 16 16 16 16 16 16 16 15 13 12 11 10 8 7 5 4 3 3 4 5 6 7 8
14 15 15 14 14 15 17 18 19 20 20 20 19 19 18 18 18 18 17 17 17 17 17 17 17 17 17 16 15 14 13 12 11 9 8 6 5 5 5 5 6 7 8 8
14 14 14 15 15 15 18 18 18 19 19 19 19 20 20 19 19 18 17 17 17 17 17 17 18 17 17 17 16 15 14 13 11 10 9 8 7 7 7 7 8 8 9 10
15 14 14 14 14 15 17 18 19 19 19 18 19 20 21 20 20 19 18 18 18 18 18 18 19 19 18 17 16 15 15 14 12 11 10 10 9 9 9 9 10 10 11 12
15 14 13 13 14 15 16 16 16 17 17 18 19 20 21 21 20 19 19 19 19 19 19 19 19 19 18 17 17 16 15 14 13 12 11 11 11 11 11 11 12 12 13 13
15 15 14 14 14 15 14 15 16 16 17 18 19 21 22 21 21 21 20 20 20 20 19 19 20 19 19 18 18 17 16 15 14 13 13 12 12 12 13 13 13 14 15 15
16 16 15 15 14 14 15 15 16 16 17 17 19 20 21 21 21 20 20 20 20 20 20 20 20 20 19 19 18 17 17 16 15 15 14 14 14 14 14 15 15 16 16 17
16 17 16 15 15 14 14 16 16 16 15 16 18 19 19 20 19 19 20 21 21 21 21 21 21 20 19 19 18 18 17 17 16 16 16 16 16 16 16 17 18 18 19 20
18 18 17 16 16 15 15 16 17 16 16 17 18 19 20 20 19 20 22 22 22 22 21 21 21 20 20 19 19 18 18 18 17 17 17 17 18 18 18 19 20 20 21 22
20 20 19 18 17 15 16 17 18 17 18 18 19 20 20 20 20 21 22 22 22 22 21 21 21 21 20 20 19 19 19 19 18 18 19 19 20 20 20 21 22 23 24 25
21 20 20 19 18 17 18 19 19 19 19 19 19 20 20 20 20 21 21 22 22 22 22 22 22 21 21 21 21 21 20 20 20 20 21 21 22 22 23 23 24 25 26 27
22 21 21 21 19 20 20 20 20 19 19 20 19 20 20 20 20 20 20 21 21 22 22 22 22 21 21 22 22 22 22 22 22 22 23 23 23 24 25 25 27 28 29 30
24 23 22 22 22 22 22 22 22 21 21 20 20 20 20 21 20 20 20 20 21 21 22 22 22 22 23 23 23 23 23 23 24 24 25 25 26 26 27 28 29 31 32 33
25 24 23 23 23 23 23 23 23 23 22 22 22 21 21 21 21 21 21 21 21 22 22 23 23 23 24 24 25 25 25 25 26 26 26 27 28 29 30 31 32 33 35 36

GEFSCGP_500_meanwind_138.txt.gz
Wind_Speed
18 19 19 20 21 21 21 21 21 21 20 20 20 20 19 17 15 13 13 13 12 11 10 9 9 8 7 6 5 4 4 4 5 6 7 8 9 10 11 12 13 14 15 15
17 19 19 20 21 22 23 22 22 22 22 21 20 20 19 18 16 14 13 12 13 12 11 10 9 9 8 7 6 5 4 4 4 5 6 7 8 9 10 11 13 14 15 15
17 18 19 20 22 23 23 22 21 22 21 20 20 19 18 17 17 15 14 14 14 13 12 11 10 9 9 8 7 6 5 4 4 4 5 7 8 9 10 11 12 13 14 15
17 18 19 20 22 23 23 23 23 23 21 21 20 19 19 18 18 17 15 14 14 14 13 11 10 10 9 8 8 7 6 4 4 4 4 6 7 8 9 10 11 12 13 14
16 18 19 19 21 22 22 23 23 23 22 22 21 19 18 18 19 17 16 15 15 15 14 12 11 10 10 9 8 7 6 5 4 3 3 4 6 7 8 9 10 12 13 14
15 17 18 19 20 21 22 21 21 22 23 22 20 19 18 17 17 17 17 16 15 15 15 13 12 12 11 10 9 8 7 6 4 3 2 3 5 6 7 8 9 11 12 13
14 15 16 17 19 21 21 20 20 21 21 19 18 20 19 17 17 16 16 16 15 15 14 14 14 13 12 11 10 9 8 6 5 4 2 2 3 5 6 7 8 10 11 12
13 13 15 16 17 18 19 20 18 18 17 15 18 19 18 18 17 17 17 16 16 16 15 15 15 14 13 12 11 10 9 8 6 5 3 1 2 3 5 6 7 9 10 11
11 12 14 15 16 18 20 21 19 17 16 13 15 16 16 15 16 17 17 17 16 15 16 15 15 15 14 13 12 12 10 9 7 6 4 2 1 2 3 5 6 7 9 10
12 12 13 13 16 18 19 20 20 19 17 15 13 12 13 14 15 17 17 16 15 16 15 16 15 15 15 14 13 12 11 10 9 7 5 4 2 1 2 3 4 6 7 8
13 12 12 14 14 16 18 20 20 20 19 16 14 15 15 15 15 17 17 16 16 15 15 16 16 15 15 15 14 14 12 11 10 9 7 5 4 2 0 2 3 5 6 7
13 13 12 12 13 15 18 19 20 20 19 18 16 15 14 14 15 17 17 17 17 17 17 17 17 17 16 16 15 14 13 12 11 10 8 7 5 4 2 2 3 4 5 6
14 14 13 12 13 14 16 18 20 20 20 19 18 15 14 14 16 17 17 17 17 17 18 17 17 17 17 16 16 15 14 13 12 11 10 8 7 6 4 3 3 4 5 6
13 13 13 11 11 12 15 17 19 20 20 19 18 15 14 14 16 17 17 17 17 17 18 18 17 17 17 17 17 16 15 14 13 12 11 10 8 7 6 5 4 4 5 6
13 13 13 12 13 13 14 16 18 19 20 19 19 19 17 16 18 18 17 17 18 18 17 17 17 17 17 18 17 17 16 15 14 13 12 11 10 9 7 7 6 6 6 7
13 13 12 12 13 13 14 15 16 18 19 19 18 19 19 20 19 19 19 18 18 18 18 18 18 18 18 18 18 18 17 16 15 14 13 12 11 10 9 8 8 8 8 8
14 13 13 12 13 14 14 14 15 16 18 20 19 18 19 21 21 21 20 19 18 17 18 18 18 18 19 19 19 18 18 17 16 15 14 14 13 12 11 10 10 10 10 10
14 13 13 12 13 14 12 12 14 16 17 18 19 19 20 21 21 21 20 19 18 18 18 18 18 18 19 19 19 19 18 18 17 17 15 15 14 14 13 12 12 12 12 12
15 15 14 14 13 12 11 11 12 14 15 17 17 18 19 19 20 20 20 19 19 19 19 19 18 19 19 19 19 19 18 18 18 18 17 16 15 15 14 14 13 13 14 14
15 16 16 15 13 12 11 11 11 12 14 16 17 17 18 19 20 19 20 20 21 20 20 19 19 19 19 19 19 19 19 19 19 18 18 17 17 16 15 15 15 15 16 16
16 16 16 15 13 12 12 12 12 13 12 14 15 16 18 18 18 19 20 21 22 21 21 20 20 20 20 20 20 20 20 19 19 19 19 18 17 17 17 17 17 17 18 18
16 16 17 16 15 13 13 14 15 14 13 15 16 17 18 19 19 20 20 20 21 21 21 21 21 21 21 21 22 22 21 20 20 20 19 19 19 19 19 19 19 19 20 20
18 18 18 18 18 16 16 16 16 16 16 16 17 18 19 19 19 19 20 20 21 21 21 21 21 21 22 22 23 23 23 22 22 21 21 20 20 20 20 21 21 22 22 23
21 21 20 20 20 20 20 19 19 18 18 18 18 18 19 18 18 19 19 20 21 21 22 21 22 22 22 23 24 24 24 24 23 23 22 22 22 22 22 23 23 24 24 25
24 24 22 22 22 22 22 21 20 20 19 18 18 18 19 19 19 19 19 19 20 20 21 21 22 22 23 24 24 25 25 25 25 24 24 24 24 24 24 24 25 25 26 27
25 24 24 24 24 23 23 22 21 21 20 19 19 19 20 20 20 20 20 20 20 20 21 22 22 23 23 24 25 25 26 26 26 26 26 26 26 26 26 26 27 27 28 29

GEFSCGP_500_meanwind_144.txt.gz
Wind_Speed
13 14 14 14 15 16 17 18 18 18 17 16 16 15 14 13 12 12 12 11 11 11 10 11 12 11 10 9 8 7 5 4 4 4 5 6 7 8 10 12 13 14 15 15
12 13 14 14 14 16 18 19 19 18 18 18 17 17 16 15 13 13 13 13 12 12 12 12 13 12 11 10 9 7 6 5 4 5 5 6 6 8 9 11 12 13 14 15
12 13 14 15 15 16 17 19 20 19 18 18 18 17 18 17 15 14 14 14 13 13 14 14 14 13 12 11 9 8 7 6 5 5 5 5 6 7 9 10 11 13 14 14
13 14 14 15 16 16 17 18 19 19 19 18 18 18 18 18 17 15 15 14 14 14 14 15 14 14 13 12 11 9 8 7 5 5 5 5 5 6 7 9 10 12 13 14
12 13 14 15 15 15 16 17 18 19 19 18 18 18 17 18 17 16 16 15 15 15 16 16 15 15 14 13 12 10 9 7 6 5 5 4 5 6 7 8 9 10 12 13
11 13 14 14 15 15 16 16 17 17 18 18 16 17 16 15 15 16 16 16 16 16 17 17 16 16 15 14 12 11 9 7 6 5 5 4 4 5 6 7 8 9 10 11
11 12 13 13 14 15 15 17 17 17 18 17 16 16 14 14 13 15 16 16 16 17 18 17 17 16 16 15 13 11 10 8 7 6 5 4 4 4 5 6 7 8 9 10
10 11 12 13 14 14 14 16 16 16 16 16 17 16 14 15 15 15 16 17 18 18 19 18 17 17 17 16 14 12 11 9 8 7 5 4 4 3 4 5 6 7 8 9
10 11 12 13 13 14 14 15 16 16 15 16 16 15 15 15 15 15 16 16 17 18 19 18 18 17 18 17 15 13 12 10 9 7 6 5 4 3 3 4 5 6 7 8
10 11 11 12 13 14 15 15 16 17 16 16 15 14 15 16 15 15 17 17 17 18 18 18 18 18 18 17 16 14 13 12 10 9 7 6 5 4 3 2 3 5 6 7
11 11 11 12 12 13 15 16 17 17 16 15 14 13 14 15 16 16 17 18 17 18 18 19 19 18 18 18 16 15 14 13 11 10 9 7 6 5 4 2 2 3 4 5
11 11 11 11 12 14 15 16 17 17 17 16 15 13 14 15 17 18 18 19 19 18 19 19 19 19 18 18 17 16 15 13 12 11 10 9 7 5 4 3 2 1 2 3
11 11 11 12 13 14 16 16 17 17 17 17 16 13 15 16 17 18 19 20 20 19 20 20 20 20 18 19 18 17 16 14 13 12 11 10 8 7 6 4 3 1 0 2
12 12 11 11 12 13 14 16 17 17 17 17 15 14 15 16 17 17 18 20 20 20 20 20 19 19 19 19 18 18 17 15 14 13 12 11 10 9 8 6 5 3 2 2
12 13 13 13 13 14 15 14 16 17 17 16 15 15 16 16 17 17 18 19 20 20 20 20 20 19 19 19 19 18 17 16 15 15 14 12 11 10 9 8 7 5 5 4
13 13 13 13 13 14 14 15 15 16 16 15 15 14 16 18 17 17 18 18 19 20 20 20 20 20 19 19 19 18 18 17 16 16 15 14 13 12 11 10 9 8 7 6
14 13 13 13 14 15 14 13 14 14 16 14 14 14 17 18 17 18 17 18 19 20 20 20 20 20 20 20 19 19 19 18 17 16 16 15 14 13 12 11 11 10 9 9
15 14 14 13 14 14 12 14 13 13 15 15 15 16 17 17 19 19 19 18 18 19 20 20 20 19 20 20 20 20 20 19 18 17 16 16 15 14 13 13 12 12 11 11
16 15 15 15 15 14 13 13 13 13 14 15 16 17 18 19 19 20 19 19 19 18 19 19 19 19 20 19 19 20 20 19 19 17 17 16 16 15 15 14 14 13 13 13
18 16 16 15 15 13 11 12 13 13 13 14 15 16 18 19 18 17 18 19 18 19 19 19 19 19 19 19 19 20 20 20 18 18 18 17 17 16 16 15 15 15 15 15
19 17 17 16 15 12 11 12 13 13 12 13 14 15 16 17 17 18 19 18 18 19 19 20 20 19 19 19 20 20 20 20 19 19 19 18 18 17 17 16 16 17 17 17
20 19 18 17 15 12 13 14 13 11 12 13 13 14 15 15 17 18 18 18 19 20 20 20 20 20 20 20 20 20 20 21 21 20 20 19 19 19 18 18 18 18 18 18
22 21 19 18 16 14 13 13 11 11 12 12 13 13 15 15 16 17 18 18 19 20 20 20 21 21 21 21 20 20 21 21 22 21 21 21 21 20 20 20 20 20 20 20
22 22 21 20 18 17 16 14 13 12 12 12 13 14 14 15 16 17 17 18 19 20 20 21 21 22 22 21 21 21 21 21 22 22 22 22 22 22 22 22 22 22 22 22
22 22 22 21 19 18 16 15 14 14 14 13 13 14 15 14 15 16 17 18 19 20 20 20 21 21 21 22 22 22 22 22 23 23 23 23 24 24 24 24 24 24 24 24
24 23 23 23 21 19 18 18 17 17 16 15 15 15 15 15 15 16 17 18 19 20 21 21 21 21 22 23 23 23 24 24 24 24 24 24 24 24 24 25 25 25 25 26

GEFSCGP_500_meanwind_150.txt.gz
Wind_Speed
13 13 13 13 14 14 14 13 14 15 15 15 15 15 14 14 12 12 12 12 12 12 12 12 12 11 11 10 9 8 6 4 3 3 4 4 6 7 8 10 11 12 13 14
12 12 13 13 13 14 14 14 14 14 15 15 15 15 14 13 12 12 12 12 13 13 13 13 12 12 12 11 10 9 7 5 4 4 4 4 5 7 8 9 10 11 12 13
12 12 13 13 13 13 14 14 14 14 14 15 15 15 14 14 13 13 12 12 12 13 13 13 13 13 12 11 11 9 8 6 5 4 4 4 4 5 7 8 9 11 11 12
13 13 13 13 13 13 14 14 15 15 15 15 16 15 15 15 15 14 13 13 13 13 14 14 14 13 13 12 11 10 9 7 6 4 4 4 4 5 6 7 8 9 10 11
13 13 13 13 13 14 13 14 14 15 16 16 17 16 15 15 15 14 14 14 14 15 15 15 15 14 14 14 12 11 10 8 7 5 4 4 4 4 5 6 7 8 9 10
14 14 14 13 14 14 13 14 14 15 16 16 16 17 15 15 14 14 15 15 15 16 16 16 16 15 15 14 13 12 10 9 7 6 5 4 3 4 4 5 5 7 8 9
13 13 13 13 14 13 13 13 14 14 15 15 15 16 14 14 15 15 15 16 16 17 17 17 17 16 16 15 14 13 11 9 8 7 5 4 3 3 4 4 5 5 6 7
14 13 13 13 13 13 13 13 13 13 13 12 13 13 12 14 15 16 17 17 18 18 17 18 19 18 17 16 15 14 12 10 9 8 6 5 4 3 3 4 4 5 5 6
14 13 13 13 13 13 13 13 13 13 13 13 14 13 12 13 14 16 17 17 17 18 19 19 20 20 19 18 17 15 14 12 10 9 7 6 5 4 3 3 3 4 5 5
14 14 13 13 14 13 13 13 13 14 13 13 13 13 13 15 15 15 16 17 17 17 19 20 20 21 20 19 18 16 15 14 12 10 9 7 6 5 4 3 2 3 4 4
14 14 14 14 14 14 14 14 14 14 14 14 13 13 13 15 15 16 16 17 18 18 18 20 21 21 20 20 19 18 16 15 13 11 10 9 7 6 5 3 2 2 2 3
15 14 14 14 14 15 15 14 14 15 15 14 14 13 13 15 16 17 18 18 18 19 19 20 21 21 21 21 20 18 17 16 15 13 11 10 9 7 6 5 3 2 1 1
16 15 14 14 14 15 15 15 15 15 15 15 14 13 14 15 17 18 19 19 19 20 20 20 21 22 21 21 21 20 18 17 16 14 13 12 10 9 7 6 5 4 2 1
16 15 14 14 14 15 15 15 15 16 15 14 13 13 14 16 17 18 20 20 20 20 20 21 22 22 22 21 21 20 19 19 17 16 14 13 12 10 9 8 7 6 5 3
16 16 15 15 15 15 15 16 16 15 15 15 14 14 14 17 18 19 20 20 20 19 20 20 22 23 22 22 21 20 20 20 19 18 16 15 13 11 10 9 9 8 7 6
16 16 16 16 16 16 15 15 16 15 14 14 15 14 15 17 19 19 19 20 20 20 20 21 22 22 22 22 22 21 20 20 19 18 17 16 14 13 12 11 10 10 9 8
17 17 16 16 16 17 14 14 16 15 14 14 14 13 15 16 19 19 19 20 20 20 20 21 22 22 22 22 22 21 21 21 20 19 18 17 15 14 13 12 11 11 10 9
18 18 17 17 16 16 12 14 15 15 14 14 13 14 15 16 18 19 19 19 19 20 21 21 22 23 22 22 22 22 21 21 20 20 19 18 17 16 14 14 13 12 12 11
19 19 18 17 17 14 12 13 14 15 14 14 14 15 16 17 17 18 19 18 17 19 20 21 23 24 24 23 22 22 21 20 20 19 19 18 17 17 16 15 15 15 14 14
21 20 19 18 17 14 12 12 13 14 13 14 14 14 15 16 16 17 18 18 18 18 19 21 22 23 23 23 22 22 21 20 20 20 20 19 18 18 17 17 17 16 16 16
21 21 19 18 17 14 13 12 13 13 12 13 15 15 16 16 16 18 18 19 20 19 19 21 22 22 22 23 22 22 22 21 21 21 20 20 19 19 19 18 18 18 17 17
21 21 19 18 17 13 13 13 13 13 13 14 14 14 15 17 18 19 19 19 21 21 21 21 21 21 21 21 21 21 21 22 22 22 22 21 20 20 20 20 19 19 19 19
22 21 20 19 16 15 15 14 14 13 12 13 13 14 15 16 18 19 19 19 20 21 21 21 21 21 21 22 22 22 22 23 22 22 22 22 22 22 22 21 21 20 20 20
23 22 22 20 17 16 16 15 15 14 13 13 14 14 15 16 17 17 18 20 21 21 21 21 21 21 21 22 22 23 23 23 23 24 23 22 22 22 22 22 22 22 22 22
25 24 22 20 18 18 17 18 16 15 15 15 15 15 15 16 17 18 19 20 21 21 21 21 21 21 22 22 23 23 23 22 23 23 23 23 23 23 23 23 23 23 23 23
26 25 24 22 21 20 18 18 17 16 15 16 16 16 15 17 17 18 19 20 20 21 21 21 21 21 22 22 22 23 23 23 23 23 24 24 24 24 24 24 24 25 25 25

GEFSCGP_500_meanwind_156.txt.gz
Wind_Speed
11 11 12 12 12 12 12 12 12 12 12 11 12 12 12 12 11 11 11 11 10 11 11 11 11 11 11 11 10 9 8 7 5 4 3 2 2 3 5 6 7 8 10 10
12 12 12 13 12 12 12 12 12 12 12 12 12 13 13 12 13 12 11 11 11 11 12 13 12 11 11 12 10 10 9 7 6 5 4 3 2 2 4 6 7 8 9 10
12 12 12 12 12 12 12 12 12 12 12 12 12 13 13 13 13 13 12 11 11 12 13 12 12 12 13 13 12 11 10 8 7 6 5 3 2 2 3 5 6 7 8 9
13 13 12 12 12 12 12 12 13 13 12 12 13 13 14 14 14 14 13 12 12 13 14 14 13 13 14 14 13 12 11 9 8 6 5 4 3 2 3 4 5 7 7 8
13 13 13 13 12 12 12 12 13 12 12 12 12 13 13 14 15 14 15 14 13 14 15 15 14 14 15 14 14 14 12 10 9 7 6 5 4 3 3 3 5 6 7 7
14 14 13 13 13 13 13 12 12 12 13 12 12 13 13 13 14 14 15 15 15 15 15 15 15 15 15 15 15 14 13 11 10 8 7 6 4 3 3 2 3 5 6 6
14 13 13 13 13 12 12 12 12 12 13 13 13 14 13 13 14 14 14 15 15 15 16 16 16 16 16 16 16 15 14 12 11 9 8 7 5 4 3 3 2 3 4 5
14 13 13 13 13 13 13 13 13 13 13 13 13 13 13 13 14 14 15 15 16 16 16 16 17 17 16 16 16 16 15 13 12 11 9 8 7 5 4 3 2 3 3 4
14 14 13 13 13 12 13 14 13 13 13 13 13 12 13 13 14 14 15 16 17 16 17 17 17 17 17 17 17 16 16 14 13 12 11 9 8 6 5 4 3 3 3 3
15 15 14 13 13 13 13 13 13 13 13 13 12 13 13 14 15 15 15 16 17 17 18 18 18 18 18 18 18 17 17 15 14 13 12 10 9 8 6 5 4 3 3 3
16 15 14 14 14 13 13 13 14 13 13 13 13 13 14 14 14 15 16 16 17 17 17 18 19 19 19 19 18 18 17 17 16 15 13 12 10 9 7 6 5 4 4 3
17 16 15 15 14 14 14 14 14 14 13 14 14 13 13 14 14 15 16 17 17 17 18 18 19 20 20 19 19 18 18 18 17 16 15 13 12 10 9 8 7 5 4 4
17 16 15 15 15 14 15 15 15 15 15 14 14 13 14 14 15 16 16 17 18 18 18 18 19 20 20 20 20 20 19 19 18 18 17 15 13 12 11 10 8 7 6 4
18 17 16 16 16 15 15 15 15 15 15 14 14 14 14 15 16 16 17 18 19 19 19 19 19 20 21 21 21 21 20 20 19 19 18 16 15 14 12 11 10 9 7 6
18 17 16 16 16 16 16 15 16 16 15 14 14 15 15 15 16 17 17 18 19 20 20 19 19 20 21 21 22 22 21 21 20 20 19 18 16 15 14 13 12 10 9 7
19 17 17 17 17 16 16 16 16 16 16 15 15 15 16 16 17 17 18 18 19 20 21 20 20 20 21 22 22 22 22 22 21 20 20 19 18 16 16 15 13 12 11 9
19 18 18 17 17 17 15 15 16 16 16 17 16 16 18 17 17 18 18 18 19 21 22 21 20 19 20 22 23 23 23 22 22 21 21 20 19 17 16 16 14 13 12 11
20 19 19 18 18 17 15 15 16 16 17 17 17 17 18 18 18 18 18 18 19 20 21 20 20 20 20 21 23 22 22 22 21 21 21 21 20 19 18 17 16 14 13 13
22 21 20 20 19 17 15 15 16 16 16 17 17 17 17 18 18 18 18 19 19 19 20 20 20 20 21 21 22 22 22 22 21 22 21 21 20 19 18 17 16 16 15 14
23 22 21 20 19 17 16 16 16 16 16 17 17 17 17 17 17 18 18 18 18 18 19 19 20 20 21 21 22 22 21 21 21 22 22 22 21 21 20 18 17 16 15 15
24 22 22 20 19 17 16 16 16 15 15 16 16 16 16 16 16 18 19 18 18 19 19 19 19 19 20 21 21 21 21 21 21 22 22 22 22 21 21 20 19 18 17 16
24 23 22 21 19 17 17 17 16 16 15 16 16 15 15 16 17 17 18 18 18 18 18 18 18 19 19 20 20 20 20 20 21 22 22 21 22 21 21 20 20 20 19 18
26 24 22 21 19 19 18 18 17 16 16 16 16 15 15 15 15 16 17 17 17 18 17 17 18 18 19 19 19 20 20 20 20 21 22 21 21 21 21 20 20 20 20 20
27 25 23 21 20 20 19 18 18 17 16 15 15 15 15 14 14 15 16 16 17 18 18 17 17 17 19 19 19 20 20 21 21 21 21 21 21 21 22 22 22 22 22 21
28 26 24 23 21 21 21 19 18 18 17 15 15 15 15 15 15 16 15 16 16 17 18 18 18 18 19 19 18 18 19 20 20 21 21 22 22 22 23 23 23 23 23 23
28 26 25 24 23 23 22 20 19 18 18 17 16 16 15 15 15 15 16 17 17 17 17 18 19 20 20 20 19 19 19 19 20 21 22 23 23 24 24 24 24 25 24 24

GEFSCGP_500_meanwind_162.txt.gz
Wind_Speed
12 13 12 12 12 11 11 11 12 12 11 11 10 10 11 11 11 10 9 9 9 9 9 8 8 8 7 7 7 7 7 6 4 3 2 2 3 4 5 6 7 8 9 9
14 14 12 12 12 12 12 12 12 12 11 11 11 11 11 11 11 11 10 10 9 9 9 9 9 9 8 7 7 7 7 6 5 3 2 2 2 3 5 6 7 7 8 8
15 14 13 13 13 12 12 12 12 12 12 12 12 12 12 11 10 10 10 9 9 9 9 9 10 9 9 9 8 8 7 7 5 4 3 1 2 2 4 5 6 7 8 8
16 14 14 14 14 13 13 12 12 12 12 12 12 12 12 11 11 11 10 10 10 10 10 10 10 9 9 9 8 7 8 8 6 5 3 2 1 1 3 4 5 6 7 7
17 15 15 15 14 14 14 13 13 12 12 13 13 13 13 12 12 12 11 11 11 10 11 11 10 11 10 9 9 8 8 8 7 5 4 3 1 1 2 3 4 5 6 6
17 16 15 15 15 14 14 13 12 13 13 13 13 13 14 14 12 12 11 12 12 12 11 12 11 11 11 11 10 9 9 9 7 6 5 4 2 2 1 2 3 4 4 5
18 16 16 15 15 15 14 13 12 12 11 11 13 14 15 13 12 12 13 13 13 13 12 13 12 12 12 11 11 10 9 9 8 7 6 5 4 2 2 1 2 3 4 4
18 17 16 15 15 15 14 14 13 10 9 10 13 14 15 14 13 13 13 13 13 13 12 12 13 13 13 12 12 12 10 10 10 8 7 6 5 4 3 2 1 2 2 3
18 18 16 16 16 16 15 15 14 13 12 11 12 14 14 13 13 12 12 13 13 13 13 12 13 14 14 14 14 13 12 11 10 9 8 7 6 5 3 2 1 1 1 2
20 19 17 16 17 17 16 15 15 15 14 13 12 12 14 13 12 12 12 13 14 14 13 13 13 14 15 15 15 14 13 12 11 11 10 8 7 6 4 3 2 1 1 0
20 20 19 17 17 17 16 16 16 16 15 14 12 13 14 13 12 12 13 13 14 14 14 13 14 15 16 16 16 15 14 14 13 12 11 10 8 7 6 5 3 2 1 1
21 21 20 18 17 17 17 17 17 17 16 15 15 15 14 12 12 12 13 14 14 15 14 14 13 14 16 16 16 16 15 15 14 13 12 11 10 9 8 7 6 4 3 2
22 21 21 19 18 18 17 17 17 17 17 16 16 15 15 13 13 13 13 13 14 15 15 15 15 15 16 17 17 17 16 15 15 15 13 12 12 11 10 8 7 6 5 4
23 22 21 20 18 18 17 17 17 18 18 17 16 16 15 14 14 14 14 14 14 15 16 16 16 16 17 17 17 17 16 16 16 16 14 13 12 12 11 10 9 8 7 6
24 23 22 22 20 18 18 18 17 18 17 17 16 17 17 16 15 15 15 15 15 15 16 17 17 17 18 18 18 18 18 17 17 17 16 15 14 14 13 12 11 10 9 8
25 24 23 23 21 20 19 18 17 17 18 18 18 17 17 16 17 16 16 16 16 16 16 16 17 17 18 18 18 18 18 19 19 18 18 16 16 15 15 14 13 12 11 10
26 25 24 23 22 21 20 17 17 18 18 18 18 18 18 18 18 17 16 16 16 16 16 16 17 17 17 17 18 19 20 19 19 19 19 18 17 16 16 16 15 14 13 12
26 26 24 23 22 22 18 18 18 19 19 19 18 19 19 19 19 18 17 17 17 17 16 17 17 16 16 17 18 19 20 20 20 20 20 19 18 17 17 17 16 15 14 14
27 26 25 24 23 21 19 18 18 18 17 18 19 18 19 19 19 17 17 17 18 18 17 17 17 17 17 17 18 18 19 20 20 20 20 20 19 18 18 17 17 16 16 15
26 26 26 25 23 22 19 18 17 17 17 18 18 18 18 19 18 17 17 18 18 18 17 17 17 17 17 17 17 18 18 18 19 20 20 19 19 19 18 18 18 17 16 16
27 26 26 25 24 23 20 19 18 17 17 17 17 17 17 18 18 18 18 18 17 17 17 17 18 18 17 17 18 18 19 19 19 19 19 19 19 19 19 19 19 18 17 17
27 26 25 25 25 23 21 20 18 17 18 18 17 17 16 17 17 18 17 17 16 16 17 18 18 18 18 18 19 19 19 20 20 20 20 19 19 19 19 19 19 19 19 18
28 27 25 25 24 23 22 20 19 18 19 19 18 17 17 17 17 17 16 16 16 16 17 17 18 18 19 18 18 19 19 19 19 19 19 20 19 19 19 20 19 19 20 19
28 28 27 27 25 24 23 21 21 20 20 19 18 17 17 17 17 16 16 16 16 17 17 17 17 18 18 18 18 19 19 19 18 19 19 20 20 20 20 20 19 20 20 21
30 29 28 28 26 26 24 23 22 21 21 19 19 19 17 17 17 17 16 16 16 16 16 17 17 17 18 18 19 19 19 18 19 20 19 18 20 21 21 21 20 20 21 21
30 30 29 28 27 27 26 24 23 22 21 19 18 18 17 16 16 16 15 15 15 15 15 16 16 17 18 18 19 19 19 19 19 20 20 19 20 20 21 21 21 21 21 22

GEFSCGP_500_meanwind_168.txt.gz
Wind_Speed
13 12 11 12 12 12 12 11 10 9 8 7 7 7 7 7 6 5 5 5 5 6 7 6 6 6 5 5 4 5 7 6 6 5 4 4 3 3 4 5 6 7 7 8
14 12 12 12 12 12 12 11 10 10 10 8 8 7 7 6 6 6 6 6 6 6 7 7 7 6 6 6 5 6 7 7 6 6 5 4 3 3 4 5 6 7 7 8
14 13 14 13 12 12 12 11 10 10 9 9 9 8 8 6 6 6 6 6 7 7 7 7 7 7 7 7 6 6 7 7 6 6 5 4 3 3 3 4 5 6 6 7
15 15 14 13 13 13 12 12 12 10 10 10 10 9 8 7 7 6 6 6 7 7 7 7 8 7 7 8 8 6 7 7 7 6 6 5 4 3 3 3 5 6 6 7
15 15 14 13 13 13 12 13 13 12 11 10 10 9 8 8 7 6 7 7 8 8 8 8 8 7 8 9 9 8 8 8 7 7 7 6 4 3 3 3 4 5 6 7
16 16 15 14 13 13 13 13 13 13 11 10 10 10 7 7 6 7 7 7 8 9 9 9 9 8 8 9 10 9 8 8 8 7 7 6 5 3 3 3 3 4 5 6
17 17 16 15 14 14 13 13 13 13 12 11 10 10 7 7 7 7 7 7 9 10 10 10 9 9 9 10 10 10 9 9 9 8 8 7 5 4 3 3 3 4 5 5
19 17 17 16 15 14 13 13 13 13 12 11 11 9 8 8 7 7 7 7 9 11 11 10 9 9 10 11 10 10 10 10 10 8 10 8 6 5 4 3 3 4 4 4
19 19 18 17 16 15 14 14 14 14 13 13 12 10 8 8 8 8 7 8 9 11 12 11 10 10 11 12 11 11 11 11 10 9 9 9 8 6 5 4 4 3 4 4
20 19 19 18 17 16 15 15 15 15 14 13 12 11 9 8 8 7 7 8 9 10 12 11 11 11 12 12 12 12 11 11 11 11 10 10 9 7 5 4 4 4 3 3
21 21 20 19 18 17 16 16 16 15 15 14 13 11 10 9 7 7 7 8 8 9 10 11 11 12 12 13 13 13 13 12 12 11 11 10 10 9 7 6 5 5 4 4
21 21 21 20 19 19 18 17 16 16 16 15 14 12 11 9 9 8 8 8 9 10 10 11 12 12 12 13 14 13 14 14 13 13 12 12 10 10 9 8 7 6 6 5
22 22 21 21 20 20 19 18 17 18 17 16 15 13 12 11 10 10 10 9 9 10 11 12 12 12 13 14 14 14 14 14 15 14 14 13 12 11 11 10 9 8 7 7
24 23 22 21 20 19 19 18 18 18 18 16 15 14 13 13 12 11 11 11 10 10 12 13 13 12 13 13 15 15 15 15 15 15 15 14 13 13 12 11 11 10 9 8
24 24 23 22 21 20 21 19 19 18 17 17 15 15 13 13 13 12 12 12 11 11 12 13 14 13 13 14 15 16 16 16 16 16 16 15 15 14 14 13 12 11 10 9
25 25 25 24 22 21 21 20 20 19 18 17 16 14 13 13 13 13 13 12 12 12 13 13 13 14 14 15 15 16 17 17 16 17 16 16 16 15 15 15 14 12 11 10
25 26 26 25 23 22 21 20 19 19 18 17 16 14 15 15 14 13 12 12 12 11 12 12 13 13 14 15 16 16 17 18 18 18 18 17 16 16 16 15 15 14 13 12
26 26 26 26 24 24 20 20 20 19 18 17 16 15 15 15 14 14 13 13 13 12 12 13 14 14 13 14 16 17 18 18 19 19 18 18 17 17 17 16 17 16 15 15
27 26 26 26 25 23 22 21 20 19 18 18 17 16 16 16 15 14 13 13 13 13 13 14 14 14 14 14 15 16 17 18 18 20 19 19 19 18 17 17 17 17 16 16
27 27 27 26 25 23 21 20 20 20 19 18 17 17 17 16 15 14 14 14 15 15 14 14 15 15 15 15 15 16 17 18 18 19 20 20 20 19 18 18 18 18 17 17
28 28 27 26 25 22 20 21 20 21 18 18 17 17 16 15 14 14 15 15 15 15 15 15 15 16 16 16 16 16 17 17 18 18 19 20 19 19 19 19 20 19 18 18
29 28 27 26 25 21 20 20 21 20 18 17 17 16 16 15 15 15 16 16 15 15 16 16 16 16 17 17 17 17 17 18 18 18 19 20 20 19 18 18 18 19 19 19
30 28 27 26 23 21 21 21 20 20 18 17 17 17 16 16 16 16 16 16 16 16 17 17 17 17 17 17 17 17 17 18 18 18 19 19 20 19 19 18 18 19 19 19
30 28 27 26 24 23 22 21 20 20 19 18 18 18 18 17 17 16 16 16 16 16 17 16 17 17 17 18 18 18 19 19 19 19 19 19 19 20 19 19 19 20 20 20
30 29 28 26 25 24 23 21 20 20 20 19 18 18 19 18 17 17 17 17 17 17 17 17 17 17 17 18 19 19 19 19 20 20 20 20 20 21 21 20 20 20 21 21
31 30 29 28 25 24 23 23 21 20 19 18 18 19 19 19 18 18 17 18 18 18 18 17 17 16 17 18 18 19 19 20 20 21 21 21 22 22 22 22 22 22 22 22

GEFSCGP_500_meanwind_174.txt.gz
Wind_Speed
14 13 13 13 13 13 12 12 12 13 12 11 11 11 10 9 9 9 8 8 9 9 9 8 8 8 7 7 6 7 6 5 5 4 4 3 2 2 2 3 3 3 4 4
15 14 14 14 14 13 12 12 12 12 12 11 10 10 9 9 10 9 9 9 9 9 10 9 8 9 8 8 8 7 7 6 6 5 4 3 2 2 2 2 3 3 4 5
15 15 15 14 14 14 13 13 12 12 11 11 11 10 9 9 10 10 9 10 10 10 10 10 9 9 10 9 8 8 8 6 6 5 4 4 3 2 2 3 3 3 4 5
17 16 16 15 15 15 14 14 13 13 12 12 12 10 10 9 9 9 10 10 10 10 10 10 10 10 11 10 10 9 8 7 6 6 5 4 4 3 3 3 3 4 4 5
17 17 16 15 15 15 14 14 13 13 13 12 11 11 9 9 9 9 9 10 9 10 10 10 10 11 11 11 11 10 9 8 7 6 6 5 4 4 3 4 4 4 5 5
18 18 17 16 16 15 15 14 14 14 13 12 11 11 9 9 10 9 9 10 10 10 10 10 10 11 12 12 11 11 9 8 8 7 6 6 4 5 4 4 4 4 4 5
20 19 18 17 17 16 15 15 14 14 13 12 11 11 9 10 10 10 10 10 11 10 11 11 11 11 12 12 12 11 10 9 9 8 7 7 6 5 5 4 4 4 4 4
20 20 19 17 17 16 16 16 15 15 13 12 12 11 10 11 11 10 10 11 10 11 11 11 12 12 12 12 12 11 11 10 9 9 8 7 7 6 6 6 5 5 4 4
21 21 20 19 18 18 18 17 16 16 15 13 12 11 10 11 11 11 11 11 10 11 11 12 12 11 12 12 12 12 12 11 10 10 9 8 7 7 7 6 5 5 4 4
22 22 21 21 20 20 19 18 18 17 16 14 13 12 11 11 12 11 11 11 11 11 12 13 13 12 12 12 13 12 12 12 11 10 10 9 8 8 8 7 6 6 5 5
23 23 22 22 21 20 20 20 19 18 17 15 13 12 12 12 12 12 12 12 12 12 12 12 13 13 12 12 13 13 13 13 12 11 11 11 10 9 9 8 7 7 7 6
24 24 23 23 22 22 21 21 20 19 17 15 14 12 12 12 12 12 11 12 12 12 12 13 13 12 13 13 13 14 13 13 13 12 12 12 12 10 10 9 9 8 8 7
25 25 24 24 23 23 22 22 21 19 18 16 15 13 12 12 12 12 12 12 13 13 13 13 13 13 13 13 13 14 14 14 13 13 13 13 13 12 11 11 10 10 9 8
26 26 25 24 23 23 22 22 21 21 19 17 15 13 13 13 13 13 13 13 13 13 13 14 14 14 14 14 13 14 14 14 14 14 13 14 14 14 13 12 11 11 11 9
27 26 25 25 24 23 23 22 21 21 20 18 16 15 14 14 14 14 13 13 13 14 14 14 15 14 14 14 14 14 14 15 15 15 14 14 14 15 14 13 12 12 12 11
28 27 26 26 25 24 24 23 22 21 20 19 18 17 16 16 15 15 14 13 14 14 14 14 14 14 13 14 14 15 15 15 15 15 15 15 15 16 16 15 14 13 13 13
29 28 27 26 26 25 24 22 22 22 20 19 18 17 18 17 16 15 15 15 14 14 15 14 14 14 14 14 15 15 15 15 15 16 16 16 16 16 16 16 15 15 14 14
30 30 29 27 27 28 23 22 23 22 21 19 17 18 18 17 17 16 15 14 15 15 16 16 15 15 15 14 15 15 16 16 16 16 16 17 17 17 17 16 16 15 15 15
32 31 30 29 29 26 24 23 23 23 21 20 18 18 18 17 18 17 16 15 15 15 16 15 15 15 15 15 15 16 16 17 17 17 16 17 18 18 17 17 17 17 16 16
32 32 31 30 29 26 23 23 23 23 22 20 19 18 18 18 18 17 17 16 16 16 17 16 15 15 14 14 14 14 15 16 17 18 18 18 18 19 19 19 18 18 17 17
33 32 32 31 29 25 22 23 23 23 21 21 20 19 19 18 17 18 18 17 17 17 17 17 16 15 15 14 14 15 16 16 17 17 18 18 19 19 20 19 19 19 18 18
33 32 31 30 29 25 22 23 23 22 22 21 21 20 20 19 19 19 18 18 18 18 17 17 17 17 16 16 16 16 17 17 17 17 18 18 18 18 19 19 19 19 20 20
32 31 30 28 26 25 23 23 23 23 22 22 21 21 21 20 20 20 19 19 19 19 19 18 18 18 18 18 17 17 17 18 17 17 18 18 18 18 18 18 18 18 19 19
32 31 31 29 28 26 25 23 23 23 21 22 22 21 20 20 21 21 20 20 20 20 20 19 19 19 19 19 19 18 18 18 18 18 18 18 17 18 19 18 19 19 19 20
31 31 31 30 28 27 26 25 24 23 22 21 22 20 20 21 20 20 20 21 20 20 20 20 20 20 20 20 20 19 19 18 19 19 18 18 18 19 20 19 20 20 20 20
31 31 30 29 28 28 27 26 25 24 23 22 21 21 21 21 21 21 21 20 20 20 20 21 21 21 20 20 20 20 20 19 19 19 19 19 19 20 21 21 21 21 21 21

GEFSCGP_500_meanwind_180.txt.gz
Wind_Speed
10 10 10 10 10 10 10 10 10 10 10 10 10 11 12 11 11 11 10 9 9 9 9 8 7 7 7 7 7 8 7 7 6 5 4 3 2 1 2 1 1 1 1 1
11 11 11 11 11 10 10 10 10 10 10 10 10 10 11 11 11 11 10 9 9 10 10 9 8 8 8 8 8 8 8 7 6 5 5 4 3 2 2 2 2 2 2 2
13 12 12 12 11 11 10 10 10 10 11 11 10 10 11 11 11 10 10 10 10 10 10 10 9 8 8 8 8 8 8 8 7 6 5 4 3 3 2 2 2 2 2 2
14 14 13 12 12 11 11 11 10 10 10 10 10 10 11 11 10 10 9 10 10 10 10 10 9 9 9 9 8 8 8 8 7 6 5 4 4 3 2 2 3 2 2 2
15 15 14 13 13 13 12 11 11 11 11 11 10 10 10 10 9 9 9 10 10 10 10 10 10 10 9 9 9 9 9 8 8 7 6 5 4 4 3 2 3 2 2 3
17 16 15 14 14 13 13 12 11 11 11 11 11 11 10 10 10 9 9 10 10 10 10 10 10 10 10 10 10 10 10 9 8 7 7 6 5 5 4 3 3 3 3 4
18 17 16 16 15 14 13 12 12 12 12 12 12 11 11 11 11 10 9 10 10 11 10 10 10 10 11 11 10 10 10 10 9 9 8 8 7 6 5 4 3 4 4 4
19 19 17 17 16 15 14 14 13 13 13 12 12 12 12 11 11 10 10 10 10 10 11 11 11 12 12 12 12 11 11 11 10 9 9 9 8 8 7 6 5 5 5 4
20 20 19 17 17 17 16 15 15 15 14 13 13 12 12 12 12 11 10 10 11 11 11 11 11 12 12 12 12 12 12 12 11 10 10 10 10 9 7 7 5 5 5 5
22 22 20 19 19 18 18 17 16 15 15 14 13 13 13 13 12 12 12 11 11 11 10 11 11 12 12 13 13 13 12 12 12 11 11 11 11 10 9 7 6 6 6 5
23 23 21 20 20 19 19 18 17 17 16 15 14 14 13 13 13 13 12 12 11 11 11 11 12 12 13 13 13 14 13 13 13 12 12 12 11 11 10 9 8 7 7 6
24 23 22 22 21 21 20 19 19 18 17 17 16 16 14 14 14 13 13 13 12 11 11 12 13 13 13 14 14 14 14 13 13 13 12 12 12 12 11 10 9 9 8 7
25 25 24 24 22 22 21 20 20 19 19 18 18 17 16 15 15 14 13 13 13 13 13 12 13 14 14 14 14 14 14 14 14 13 12 12 12 12 12 12 10 10 9 8
26 26 25 24 23 21 21 21 21 21 20 19 19 18 16 16 15 14 15 15 14 14 14 14 13 14 15 15 15 15 14 15 15 14 14 14 13 13 13 12 12 11 10 10
28 27 26 26 24 23 23 22 22 22 21 20 20 19 17 17 16 15 15 15 15 14 14 14 14 14 15 15 15 15 15 15 15 15 15 15 15 14 14 13 13 12 11 10
29 28 27 26 25 24 24 23 23 22 21 21 21 19 18 18 17 17 16 16 16 15 15 15 14 14 14 14 14 14 14 15 15 15 15 15 16 15 15 15 14 13 12 12
30 29 28 27 27 26 25 23 23 22 21 21 21 19 19 19 19 18 17 17 16 16 16 15 15 15 15 15 15 14 14 14 14 15 15 15 16 16 16 16 15 14 13 13
31 30 30 29 29 29 25 23 23 23 21 21 21 20 20 20 20 19 18 17 17 16 16 16 17 16 16 16 15 15 14 14 14 14 15 15 16 16 17 17 16 15 14 14
32 31 31 30 30 29 26 24 23 23 22 21 20 20 20 20 20 19 19 18 17 17 18 17 17 17 17 16 16 15 14 14 15 15 15 15 16 16 16 16 17 16 15 15
32 32 32 32 31 30 26 25 24 23 22 21 20 20 19 19 19 18 19 19 18 17 18 18 17 17 17 16 16 16 15 15 15 15 16 16 16 17 17 17 17 17 17 16
33 33 33 32 31 29 27 25 25 24 21 21 20 20 19 19 18 18 19 19 18 18 18 17 17 17 16 16 16 16 16 16 16 16 16 17 17 18 19 18 17 18 18 17
33 34 32 32 31 29 26 25 24 24 23 22 21 20 20 20 19 19 19 19 19 19 18 18 17 17 17 17 17 16 16 16 16 16 16 16 16 17 18 18 18 17 17 17
33 33 31 30 30 28 27 25 25 24 24 23 22 21 21 20 19 19 19 19 19 19 19 18 18 18 18 18 17 17 16 16 16 16 16 16 16 18 18 18 19 18 18 18
32 32 31 30 30 29 28 27 25 24 24 23 22 21 21 20 20 20 20 20 20 20 20 19 19 19 19 19 18 17 16 16 16 16 16 15 16 16 17 19 19 19 20 19
31 31 31 30 29 29 28 27 25 24 24 24 23 22 22 21 21 21 21 20 20 21 20 20 20 20 20 20 19 18 18 17 17 16 16 16 16 16 17 18 18 18 19 19
30 31 31 30 28 29 28 27 26 25 25 24 25 24 23 23 22 22 21 21 21 21 21 21 20 20 20 20 20 19 19 19 18 17 17 17 17 17 18 18 18 19 19 20

GEFSCGP_500_meanwind_186.txt.gz
Wind_Speed
10 9 9 9 9 9 10 11 11 11 11 12 11 11 11 11 11 11 12 12 11 10 10 9 9 9 8 7 6 5 5 5 4 3 3 3 3 3 3 4 3 2 2 3
11 10 10 10 10 10 10 11 11 11 11 11 12 11 12 11 11 12 12 12 11 11 11 10 10 9 7 7 6 6 5 5 4 4 4 3 3 3 3 3 3 2 2 2
12 11 12 11 11 11 11 11 12 12 11 11 11 11 12 12 12 12 12 12 11 12 11 10 9 8 7 7 7 6 5 5 4 4 4 3 3 3 3 2 2 2 2 2
14 13 13 13 12 12 12 12 12 12 12 11 11 11 11 12 12 12 12 12 12 12 11 10 9 8 7 7 7 6 5 5 5 4 4 4 3 3 3 2 2 2 1 1
15 15 14 14 13 13 13 12 12 12 12 11 11 12 12 13 13 12 12 12 11 11 10 10 10 9 8 7 7 7 6 5 5 5 4 4 4 3 3 3 3 2 1 1
17 16 15 15 14 14 13 13 13 12 12 12 11 12 13 14 14 13 12 12 11 11 10 10 10 10 9 8 8 8 7 6 6 5 5 5 4 4 3 3 3 2 2 1
19 17 16 16 15 15 14 14 13 12 11 12 13 13 14 14 14 14 13 13 12 11 10 10 10 10 10 10 9 8 8 7 7 6 6 5 5 4 4 3 3 2 2 1
20 19 17 16 16 15 15 14 13 11 10 11 13 14 15 15 14 14 14 13 13 11 11 11 11 11 10 10 10 9 8 8 7 7 6 6 6 5 4 4 3 3 3 2
21 20 18 17 17 16 16 15 14 14 13 13 13 14 16 16 15 14 14 14 13 12 12 12 12 12 11 11 10 10 9 9 8 8 7 7 6 6 5 4 4 4 3 2
22 22 20 18 18 18 18 16 16 16 15 13 14 15 16 16 15 15 15 14 14 13 13 12 12 13 12 12 11 10 10 10 9 9 8 8 7 7 6 6 5 5 4 4
23 22 22 21 20 19 18 18 18 18 17 15 14 16 18 17 16 16 16 15 14 14 13 13 13 13 13 13 12 11 10 11 10 10 10 9 8 8 7 7 6 6 6 5
25 24 24 22 21 20 20 20 19 19 18 17 17 19 19 18 17 17 17 16 15 14 14 14 14 14 14 13 13 11 11 11 11 11 11 11 10 9 8 8 8 7 6 6
26 26 25 25 24 22 22 21 21 20 20 19 19 21 19 19 19 19 18 18 16 16 15 14 14 13 13 13 13 13 12 12 12 12 12 11 11 10 10 9 8 8 7 7
28 27 27 26 26 24 23 23 23 22 22 21 20 21 20 20 20 20 19 18 17 17 16 15 14 13 13 13 13 13 13 12 12 12 13 12 12 11 11 10 9 9 9 8
29 29 28 27 26 27 26 25 25 24 22 22 21 21 22 20 20 20 19 18 18 17 16 15 15 14 13 13 13 13 13 13 13 13 13 13 12 12 12 11 10 10 9 9
30 30 29 29 28 28 27 26 25 24 23 23 23 22 22 22 21 20 19 18 18 17 16 16 16 15 15 15 14 14 13 12 13 13 12 13 13 13 12 12 12 11 11 11
30 30 31 30 29 29 28 26 25 25 24 24 23 23 23 23 21 20 20 19 19 18 17 16 16 17 16 15 15 14 13 13 13 13 13 12 13 12 13 13 13 12 11 11
31 31 31 31 30 31 28 27 26 26 25 26 25 23 23 23 22 21 20 19 19 19 18 17 17 17 16 15 15 14 13 14 14 13 13 12 13 14 14 14 14 13 13 13
32 32 32 32 32 32 30 27 26 27 27 26 24 24 23 23 22 21 21 20 19 19 18 18 17 17 16 16 15 15 14 15 14 13 13 13 14 14 14 15 15 14 14 14
33 33 33 33 33 33 30 27 26 26 27 25 24 24 23 23 23 21 21 21 20 19 19 18 18 17 17 17 17 16 15 15 15 15 14 13 13 14 14 14 15 15 15 15
34 34 34 33 33 33 30 28 26 27 26 24 24 23 23 23 23 22 21 21 21 20 20 19 19 18 18 17 17 17 17 16 15 15 15 15 14 14 14 14 14 14 15 14
34 34 34 33 33 32 29 28 27 27 26 25 24 23 23 23 23 22 22 21 21 20 20 20 20 19 18 18 17 17 18 18 17 16 16 16 16 15 15 15 15 15 16 15
34 35 35 34 33 31 30 29 27 27 26 25 23 23 24 24 24 23 22 22 21 20 20 20 20 20 19 18 18 18 17 18 18 18 18 18 17 16 16 16 15 15 15 15
34 34 34 34 33 32 31 29 28 28 27 26 25 25 25 25 24 24 23 23 22 21 20 20 20 20 20 19 19 19 18 17 17 17 17 18 17 16 17 17 16 16 16 16
34 34 34 34 33 33 32 29 28 28 27 27 26 27 26 25 25 25 24 23 22 21 21 21 21 20 20 19 20 20 19 18 18 17 17 17 17 17 17 18 17 17 17 17
33 34 34 33 33 33 31 29 28 28 27 27 27 27 27 27 26 26 25 24 23 22 21 21 21 21 21 20 20 20 20 19 19 18 18 18 17 17 17 17 17 17 17 17

GEFSCGP_500_meanwind_192.txt.gz
Wind_Speed
9 8 7 7 7 8 8 8 8 8 8 7 6 7 6 7 7 6 7 7 7 7 6 6 6 5 4 4 4 4 3 2 2 3 3 2 2 2 2 2 2 2 1 0
10 9 8 9 9 9 8 8 8 9 8 8 7 7 6 7 6 7 7 7 6 6 6 6 6 5 4 4 4 3 3 2 3 3 3 3 2 2 2 2 2 2 1 0
11 10 10 10 10 10 9 9 9 9 9 9 8 7 7 7 7 7 7 7 6 6 6 6 6 6 5 5 4 4 3 3 3 4 4 3 2 2 2 2 2 1 1 0
13 12 12 12 11 11 10 9 10 9 9 9 9 7 6 7 7 7 7 7 6 5 5 6 6 6 6 5 4 4 4 4 4 4 4 3 3 3 2 2 1 1 1 0
14 14 14 13 12 11 11 10 10 11 10 10 10 9 6 7 7 7 6 7 6 5 5 6 6 6 5 4 5 5 4 4 4 4 4 4 4 3 3 2 2 1 1 1
16 16 15 14 13 13 11 11 11 12 11 11 10 10 7 6 7 7 7 7 6 6 6 6 6 6 6 5 5 5 5 5 5 5 5 5 4 4 3 3 2 1 1 1
18 17 16 15 14 14 13 13 13 13 12 11 10 10 7 7 7 7 7 7 7 7 6 6 6 6 7 7 7 7 6 6 6 6 6 5 5 4 4 3 2 2 2 2
19 18 17 17 16 15 14 13 13 14 13 12 12 11 10 9 8 8 8 8 7 8 8 7 7 7 7 8 8 7 7 7 7 7 6 6 6 5 4 3 3 2 2 2
20 19 19 18 17 16 15 14 14 14 14 13 12 12 11 11 10 9 9 9 8 8 8 8 8 8 8 8 9 8 8 8 8 8 7 7 7 6 5 5 4 3 3 3
21 20 19 18 18 18 16 15 16 16 16 15 14 13 12 11 11 11 10 10 9 9 9 9 9 9 9 10 10 10 9 9 9 8 8 7 7 7 7 6 5 4 4 4
22 21 20 20 20 19 18 17 17 17 17 17 16 15 14 13 13 12 12 11 11 10 9 10 10 10 10 10 11 11 10 10 10 10 9 9 9 8 7 7 6 6 5 5
23 23 23 22 21 20 20 19 19 19 18 18 18 16 15 14 14 14 14 13 11 11 10 10 11 11 11 11 11 12 12 11 11 11 11 11 10 10 9 8 8 7 6 6
25 25 25 24 23 23 22 21 21 21 21 20 19 17 16 16 16 16 16 15 13 12 12 12 11 11 11 11 12 12 12 12 12 12 11 12 12 11 11 10 10 9 8 7
26 27 26 25 24 24 24 23 22 23 23 21 20 18 17 17 17 16 16 16 15 13 12 13 12 12 12 11 12 13 13 13 12 12 12 12 13 13 12 12 11 10 9 8
27 28 27 27 26 26 26 25 25 24 23 23 21 19 18 17 17 17 17 16 15 14 14 14 13 13 12 12 12 12 13 13 13 13 13 13 13 13 13 13 12 12 10 9
28 29 29 29 29 29 29 28 27 26 25 24 23 20 19 18 18 18 18 17 16 15 15 14 14 14 14 13 13 13 13 14 14 13 13 13 13 13 14 13 13 13 12 11
30 30 30 30 30 31 31 29 28 27 26 26 25 22 21 20 19 18 18 18 17 16 15 15 14 14 15 15 14 14 14 14 14 13 13 13 13 14 14 14 14 14 13 13
30 31 32 31 31 33 30 29 29 29 27 26 25 24 22 21 20 20 19 19 18 17 17 16 15 14 15 16 16 15 16 15 15 14 14 14 14 14 14 15 15 15 15 14
31 31 32 33 34 33 30 30 30 29 28 26 25 24 24 23 22 21 20 19 19 18 17 17 16 15 15 16 16 16 16 16 15 15 15 16 15 15 14 15 15 15 15 16
32 32 32 33 34 33 29 29 29 29 28 26 25 24 24 23 22 21 21 21 20 19 19 18 17 16 16 16 16 17 17 17 17 16 16 17 17 16 15 16 16 15 15 15
32 32 32 32 33 31 29 28 28 28 25 25 25 24 24 24 22 22 22 22 22 20 20 18 17 17 17 17 17 18 18 18 18 18 17 17 17 17 17 17 17 16 16 16
32 32 33 33 33 29 27 27 28 27 25 25 26 25 25 24 23 23 23 22 22 21 20 19 18 18 18 18 18 18 18 18 19 19 18 18 18 18 18 18 18 17 17 16
32 33 33 33 31 29 28 28 27 27 26 26 26 25 25 25 24 24 23 23 22 22 21 20 20 19 19 19 19 19 20 20 20 19 19 19 18 19 19 19 18 18 17 17
32 34 35 35 32 30 30 28 27 27 27 26 26 25 25 25 25 25 24 24 23 22 21 21 20 20 20 20 20 20 20 20 20 20 20 19 19 19 18 18 18 18 18 18
32 34 36 35 32 31 30 29 28 27 27 26 26 25 25 25 25 24 24 24 24 23 22 22 21 21 21 21 20 21 21 21 21 20 20 19 19 19 19 19 19 19 19 19
32 33 35 33 31 31 30 29 28 28 28 27 26 25 25 25 25 25 25 25 24 24 24 23 23 22 22 22 22 22 21 21 21 21 20 20 20 20 20 20 19 19 20 20

GEFSCGP_500_meanwind_198.txt.gz
Wind_Speed
10 9 8 8 8 8 8 8 8 8 9 8 8 8 8 7 7 7 7 7 7 6 6 6 5 4 5 4 4 4 3 2 3 3 3 3 4 3 3 3 3 3 3 3
12 11 10 9 9 9 8 8 9 8 8 8 8 8 8 8 7 7 7 7 6 5 5 5 5 5 5 4 4 4 3 3 3 4 4 3 4 4 4 4 4 4 3 3
13 12 12 11 10 9 9 9 9 8 8 8 8 7 8 8 8 8 8 7 6 6 5 5 5 5 5 5 4 4 3 3 3 4 4 4 4 4 4 4 4 4 3 3
15 14 13 12 11 10 10 10 9 9 9 8 8 7 8 8 8 8 8 7 7 6 6 6 5 5 5 5 4 4 3 3 4 4 4 4 4 4 4 4 4 3 3 2
15 15 14 13 12 12 11 11 10 10 10 9 8 8 7 8 8 8 8 7 7 6 6 6 6 6 6 5 5 4 4 4 4 4 4 4 4 4 4 4 3 2 2 2
17 16 15 14 14 13 13 12 12 11 11 9 9 9 7 8 8 8 8 7 7 7 6 6 7 7 6 6 5 5 5 5 4 5 5 5 5 4 4 3 3 2 2 2
17 17 16 15 15 15 14 14 13 12 11 10 10 9 8 8 8 8 8 7 8 7 7 7 7 8 8 7 6 6 6 6 6 6 6 6 5 5 4 4 3 3 3 3
19 18 17 17 16 15 15 14 14 13 13 12 11 10 9 9 8 8 8 8 8 8 8 7 7 8 8 8 8 8 7 7 7 7 7 6 5 5 5 4 4 4 4 4
20 19 18 18 17 17 16 16 15 15 14 13 12 11 10 10 9 9 9 9 9 9 8 8 8 8 8 9 9 9 9 8 7 7 7 6 6 5 5 5 5 5 5 5
21 21 20 19 19 18 17 17 17 16 15 14 13 11 11 11 11 10 10 10 10 9 9 9 9 10 10 10 10 10 10 9 8 8 8 7 7 6 6 6 6 5 5 6
23 22 21 21 20 19 19 18 18 18 17 16 15 13 12 12 11 11 10 11 11 10 10 10 11 11 11 11 11 11 11 11 10 9 9 8 8 8 8 8 8 7 6 6
24 23 23 23 22 21 21 20 19 19 19 18 17 16 15 14 13 12 12 12 12 12 12 12 12 12 12 11 11 12 12 12 11 11 10 10 9 9 9 9 9 9 8 7
25 25 25 24 24 23 22 21 21 21 21 20 18 17 16 15 15 14 14 13 13 14 14 13 13 13 12 12 12 12 13 12 12 12 12 11 11 10 10 11 11 10 9 9
26 27 27 26 25 24 23 23 22 22 23 21 19 18 17 17 16 16 16 16 15 14 15 14 14 13 13 13 13 13 13 13 13 13 12 12 12 11 11 11 12 11 10 10
28 28 27 27 26 25 25 24 24 24 24 24 21 20 19 19 19 18 18 17 17 16 16 16 15 15 14 14 14 14 14 14 14 13 13 13 13 12 12 12 12 12 12 11
30 29 29 28 28 27 26 25 26 26 26 25 24 22 20 21 21 21 20 19 19 18 17 17 17 17 16 15 15 15 16 15 14 14 13 13 14 14 14 14 13 14 13 13
30 30 30 30 29 30 29 26 26 27 27 27 25 23 23 23 22 22 21 21 20 20 19 19 18 17 17 17 16 16 16 16 15 15 15 15 14 14 15 15 15 15 14 14
30 30 31 31 31 31 28 27 28 28 27 27 26 25 25 24 23 23 23 22 22 22 21 20 19 18 18 18 17 17 17 17 16 16 16 16 16 16 15 16 16 16 16 16
31 31 31 31 32 31 29 28 28 29 28 27 27 26 26 25 25 24 23 22 23 23 22 21 21 20 19 19 18 18 18 18 18 18 18 18 17 17 17 17 18 17 17 16
32 32 32 32 32 32 29 28 28 29 28 27 27 27 27 26 26 24 23 23 23 23 23 22 21 21 21 21 20 19 19 19 19 19 19 19 19 18 19 19 19 19 19 18
32 32 33 32 32 31 28 28 28 28 27 27 28 28 28 28 27 25 24 24 24 24 23 23 22 21 21 21 21 20 20 20 20 20 19 20 19 19 19 19 19 20 19 19
33 33 32 32 33 30 28 29 28 28 27 27 27 28 28 28 28 27 26 25 25 24 24 24 23 22 22 22 21 21 21 21 21 21 20 20 20 21 20 20 19 19 20 20
33 33 33 33 32 30 30 29 29 29 28 28 28 28 28 28 28 27 26 26 25 25 24 24 23 23 22 22 21 21 22 22 22 21 21 21 21 22 22 21 21 20 20 20
32 32 33 33 32 31 30 30 30 30 30 30 29 29 27 28 27 26 25 25 25 24 24 24 24 23 23 22 22 22 23 23 22 22 22 23 23 23 23 22 22 21 21 22
31 32 33 33 32 32 32 30 30 31 31 30 29 28 28 27 27 26 25 25 25 25 25 25 25 25 24 24 23 23 23 23 23 23 23 23 22 22 22 21 21 21 21 22
32 34 34 33 32 33 32 31 31 32 31 30 29 29 28 28 27 27 26 26 26 25 25 25 25 25 25 25 24 24 23 23 23 23 23 23 22 22 22 22 21 21 21 21

GEFSCGP_500_meanwind_204.txt.gz
Wind_Speed
9 8 7 6 6 6 5 5 5 6 6 6 6 6 6 6 6 6 6 6 6 6 5 5 5 5 5 5 6 5 5 5 5 5 5 5 5 5 5 5 4 4 4 4
10 9 8 7 7 7 6 6 6 6 6 6 6 6 6 6 6 6 6 6 6 6 6 5 4 5 5 6 6 5 5 5 5 5 5 5 5 6 6 6 5 5 5 4
11 10 9 9 8 8 7 7 6 6 6 6 6 6 6 6 6 6 7 7 7 7 6 5 5 5 6 6 6 5 5 6 5 5 5 5 5 6 6 5 5 5 5 4
13 11 10 10 10 9 8 8 8 7 7 6 6 6 6 6 6 6 7 7 7 7 6 6 6 6 6 6 6 6 6 5 5 5 5 5 6 6 6 6 5 5 5 4
14 13 12 11 11 10 10 9 9 8 7 7 6 6 5 6 6 6 6 7 7 7 6 6 6 7 7 6 6 6 6 5 6 6 6 6 5 5 5 5 5 5 4 4
16 14 13 12 12 11 11 10 10 9 8 7 7 6 6 6 7 6 6 6 7 6 6 7 7 7 7 7 6 7 7 6 6 6 6 6 6 5 5 5 5 5 4 4
17 16 15 14 13 12 11 11 10 10 9 9 8 7 6 7 7 7 7 7 7 7 7 8 7 7 7 8 8 7 7 7 7 7 6 6 6 6 5 5 5 5 5 5
18 18 16 15 15 14 12 12 11 11 11 10 9 8 7 7 7 7 8 8 8 8 8 8 8 8 8 8 8 8 8 7 7 7 7 7 6 6 6 6 5 5 5 5
19 19 17 17 16 15 14 13 13 13 12 11 10 9 9 8 8 8 8 8 8 9 9 9 10 10 9 9 9 9 9 8 8 7 7 7 7 7 6 6 6 6 5 5
20 20 19 18 17 17 16 15 15 14 14 13 12 11 10 9 9 8 8 8 9 9 9 9 10 10 10 10 10 10 10 10 9 9 8 8 8 7 7 7 7 6 6 6
22 22 21 20 19 18 17 17 17 16 15 14 13 13 11 11 10 10 10 10 10 10 10 10 11 11 11 11 11 11 11 11 10 10 10 10 9 8 8 8 8 8 7 7
23 23 22 21 20 20 20 19 18 18 17 16 16 15 13 13 12 12 12 11 11 12 12 12 13 12 11 12 12 12 12 12 12 11 11 11 10 10 9 8 8 9 8 8
24 24 24 23 23 22 21 21 20 20 19 18 18 17 14 14 14 13 13 13 13 13 13 14 14 14 13 13 13 13 13 13 13 13 13 13 12 11 11 10 10 10 9 9
25 25 25 25 24 23 23 22 22 21 21 20 19 18 16 16 16 15 15 15 15 15 15 15 15 15 15 15 15 15 15 15 14 14 14 14 13 13 12 12 11 11 11 10
26 26 26 26 26 25 24 23 23 23 22 22 20 20 18 17 17 17 17 16 16 16 16 16 16 16 16 16 16 16 16 16 16 16 15 15 14 14 14 14 13 13 13 12
27 27 27 27 27 26 26 25 25 25 24 23 22 21 20 19 19 19 18 18 17 17 17 17 17 17 17 17 17 17 17 17 17 17 16 16 15 15 15 15 15 14 14 14
28 28 28 28 28 28 27 26 26 26 26 25 24 22 22 21 21 20 20 19 19 18 18 18 18 17 17 17 18 18 18 18 17 17 17 17 17 16 16 17 16 16 15 15
29 28 29 30 29 29 28 27 27 26 26 26 25 24 23 23 22 22 21 21 20 19 19 19 19 19 19 18 18 18 19 18 18 17 17 17 17 17 17 18 17 17 17 17
30 30 31 31 31 30 29 27 26 26 26 26 26 24 24 24 24 23 23 22 21 20 20 20 20 20 21 20 20 20 19 19 19 19 18 18 18 18 18 18 18 19 19 19
30 31 32 32 32 31 30 28 27 27 27 26 25 25 25 25 25 24 24 24 23 22 22 22 22 22 22 22 22 21 20 20 20 21 21 20 19 19 19 19 20 20 20 20
30 31 32 32 33 32 31 28 27 28 27 26 26 26 26 26 25 25 25 25 25 24 24 24 23 23 22 23 23 22 22 21 21 21 21 20 20 20 20 20 20 20 20 20
31 31 32 33 34 32 31 30 29 29 28 27 27 27 27 26 26 26 26 26 26 26 26 25 24 24 24 24 23 23 22 22 22 21 21 20 20 20 20 20 20 20 20 20
32 32 32 33 34 33 32 31 30 30 29 28 28 28 28 28 27 27 27 26 27 27 27 26 25 25 25 24 24 23 23 23 23 23 22 21 21 21 21 20 20 20 20 20
32 33 33 33 33 33 32 31 31 30 30 29 29 29 29 29 28 28 27 27 28 28 27 26 25 25 25 24 24 24 23 23 23 23 22 22 21 21 21 21 20 20 20 21
32 33 33 33 33 33 32 31 30 30 30 31 31 30 30 30 29 29 28 28 28 27 27 27 26 25 25 25 25 24 24 23 23 23 23 23 22 22 21 21 21 20 20 21
31 32 32 32 32 33 32 32 31 32 32 32 32 31 31 30 29 29 28 28 28 28 28 28 27 26 26 26 26 25 24 24 24 24 24 23 22 22 22 21 20 20 20 20

GEFSCGP_500_meanwind_210.txt.gz
Wind_Speed
9 9 8 8 8 8 7 8 8 7 7 8 9 9 9 9 9 10 10 9 8 8 8 8 8 8 8 9 9 9 9 9 9 9 8 8 7 7 7 7 7 7 7 7
11 10 9 9 8 8 9 9 9 8 8 8 8 9 9 9 9 10 10 9 8 8 8 8 9 8 8 9 9 9 9 9 9 9 8 8 8 8 7 6 7 7 7 6
11 11 10 10 9 9 9 9 9 9 9 9 9 9 9 9 9 9 9 9 9 8 9 9 8 8 9 10 10 9 10 9 9 9 8 8 8 8 7 7 7 7 7 7
13 13 12 11 10 10 10 9 9 10 9 9 9 9 10 10 9 9 9 9 9 9 9 9 9 8 9 9 10 10 10 10 9 9 8 8 8 8 7 7 6 6 7 7
14 14 13 12 11 11 10 10 10 10 10 9 9 10 10 10 10 9 9 9 9 9 9 9 9 9 9 9 10 10 10 10 10 9 9 8 8 8 7 7 7 7 7 7
15 14 14 13 13 12 12 11 11 10 10 10 10 10 10 10 10 9 9 9 10 10 9 9 9 10 10 10 10 10 10 10 10 10 9 9 8 8 8 7 8 7 7 7
16 16 15 14 14 13 13 12 12 11 11 11 11 12 11 11 11 10 10 10 10 10 10 9 9 10 10 10 10 10 9 9 10 10 9 9 8 8 8 8 8 7 7 7
17 17 16 16 15 14 13 13 11 10 10 12 13 13 12 11 11 11 11 11 11 10 10 10 10 10 10 10 10 9 10 10 10 10 10 10 9 9 9 9 8 8 7 7
18 18 17 17 16 16 15 15 14 14 13 13 12 12 12 12 12 12 12 12 12 11 11 11 11 11 11 11 10 10 10 10 10 10 11 10 10 10 9 9 8 8 7 7
19 19 19 19 18 17 17 16 16 16 15 13 13 13 13 12 12 13 13 13 13 13 13 12 12 12 12 11 11 11 11 11 11 11 11 11 10 10 10 10 9 9 8 8
20 21 21 19 18 18 18 18 17 18 17 15 13 14 16 15 14 14 14 14 14 13 13 13 13 12 12 12 12 12 11 11 11 12 12 12 11 11 11 11 11 10 10 10
21 21 22 21 20 20 19 19 19 19 18 18 17 17 16 17 17 16 15 15 15 14 14 14 13 13 13 13 13 13 12 12 12 12 12 13 13 13 13 12 12 11 11 11
23 22 22 23 22 21 21 21 21 21 20 20 20 20 19 19 19 18 17 16 16 16 15 15 14 14 14 14 14 14 13 13 13 13 13 14 14 14 14 14 14 13 12 12
24 24 24 25 24 23 23 23 23 22 22 21 21 21 20 20 20 19 19 17 17 17 16 16 15 15 15 15 15 15 14 14 13 13 14 15 15 15 15 14 14 14 14 13
26 25 25 25 25 25 25 24 24 23 23 23 22 22 21 21 21 21 20 18 18 18 18 17 17 17 16 16 16 15 15 15 14 14 15 15 15 16 16 15 15 15 15 15
27 26 26 25 25 27 27 25 24 24 24 24 24 24 23 22 23 22 21 20 19 20 19 19 18 18 18 17 17 16 16 16 16 16 17 17 16 16 16 17 17 16 16 15
27 27 27 27 27 29 28 26 26 27 26 26 26 25 25 25 23 23 23 22 22 21 20 20 19 19 19 19 18 18 18 18 18 18 18 18 18 17 17 17 17 17 17 17
27 28 29 28 28 31 27 26 27 27 27 27 27 27 27 27 25 24 25 25 24 23 22 21 21 20 20 20 19 20 20 20 20 20 19 18 18 17 17 17 17 17 17 17
29 29 29 30 30 31 29 27 27 27 27 27 28 28 28 27 27 26 27 26 25 24 23 23 23 22 22 21 21 21 21 21 21 20 20 19 18 18 18 18 18 18 18 18
29 30 30 30 31 32 30 29 28 29 28 27 28 28 28 28 28 28 27 27 26 26 25 24 24 24 23 23 23 22 22 22 22 22 21 20 19 19 19 19 19 18 18 19
29 29 30 31 32 32 29 29 29 30 29 28 28 29 28 28 29 28 28 28 27 26 26 25 25 25 25 25 24 23 23 23 23 22 21 21 20 20 20 19 19 19 19 19
29 30 30 31 32 31 29 28 29 30 29 29 29 29 29 29 29 29 29 29 28 27 27 27 27 27 27 26 25 25 24 24 24 23 22 21 21 21 21 20 20 20 20 19
30 30 30 32 32 31 30 31 31 30 30 30 30 30 30 30 31 31 31 30 29 28 28 28 28 27 27 27 26 26 26 26 25 24 24 23 22 22 22 21 21 21 21 20
30 31 31 32 32 31 32 32 32 32 32 31 31 31 31 31 31 32 32 31 30 30 29 29 28 28 28 28 28 27 27 27 26 26 25 25 24 23 23 23 22 22 21 21
30 31 32 32 31 33 33 33 32 33 33 33 32 31 32 32 33 33 32 32 32 31 30 29 29 29 28 28 28 28 28 28 28 27 27 26 26 25 25 24 23 22 22 22
32 32 33 33 33 34 33 33 33 33 33 33 33 33 32 33 33 33 33 33 32 32 31 31 30 30 30 30 29 30 29 29 29 29 28 28 27 27 26 26 24 24 23 23

GEFSCGP_500_meanwind_216.txt.gz
Wind_Speed
11 10 9 8 8 7 6 6 6 5 5 5 6 6 6 6 7 7 7 7 6 6 5 5 5 5 6 6 6 7 7 7 6 6 6 6 5 5 5 5 4 4 4 4
12 12 10 10 9 8 7 7 7 6 5 5 6 7 6 6 7 6 6 7 7 6 6 6 5 5 6 6 7 7 8 7 7 6 6 5 5 5 5 4 4 4 4 4
13 12 11 10 9 9 8 7 7 7 7 6 6 6 6 6 7 7 6 6 6 6 6 6 6 6 6 6 6 7 7 7 7 6 6 5 5 5 5 5 4 4 4 4
14 13 12 11 11 10 9 8 8 8 7 7 7 5 5 6 6 6 6 6 6 6 6 6 6 6 7 7 6 6 7 7 7 6 6 6 5 5 5 5 5 5 4 4
15 15 14 13 12 11 10 10 9 9 8 8 7 6 5 5 5 6 6 6 6 6 6 6 6 7 7 8 7 7 7 7 7 6 6 6 5 5 5 5 5 5 5 4
15 15 14 13 13 13 11 11 10 10 9 9 8 7 6 6 6 6 6 6 6 6 6 6 6 7 8 8 7 7 7 7 7 7 6 6 5 5 5 6 6 6 6 5
15 15 14 13 13 13 12 12 12 12 11 10 10 9 7 6 6 6 6 6 6 6 7 7 7 7 7 8 8 8 7 8 8 7 6 6 6 6 6 6 6 7 7 6
15 15 14 14 14 14 13 13 13 13 12 11 11 10 8 7 7 7 6 6 6 7 7 7 7 7 7 8 8 8 8 8 8 8 7 7 7 7 7 7 7 8 7 7
17 16 16 15 15 15 14 14 13 13 14 13 12 11 9 8 8 7 7 7 7 7 7 7 8 8 8 8 8 9 8 8 8 8 8 8 8 8 8 9 9 8 8 7
18 18 17 16 16 16 15 15 15 14 15 15 14 13 10 9 9 9 9 9 9 8 8 8 9 9 9 9 9 9 9 8 8 9 9 9 8 8 9 9 9 9 9 9
19 19 18 18 17 16 16 16 16 17 17 16 15 14 12 11 10 10 10 10 10 9 9 9 9 10 10 10 10 10 10 10 9 9 9 9 9 10 9 9 9 10 10 10
21 21 20 19 18 18 18 18 17 18 17 17 16 15 13 13 12 12 12 12 11 10 10 10 10 10 10 10 11 11 11 11 10 10 10 10 10 10 10 10 10 10 11 12
22 21 21 21 20 20 20 19 19 19 19 18 18 16 15 14 14 14 13 13 13 12 12 11 11 11 11 11 12 12 12 11 11 11 11 11 11 11 11 12 11 11 12 12
23 23 22 21 21 21 21 20 20 20 20 19 19 17 17 16 16 15 15 15 15 14 14 14 13 13 12 13 13 13 12 12 12 12 12 12 12 12 12 12 13 13 13 13
24 24 23 22 22 22 22 21 21 21 20 20 19 19 18 18 18 17 17 17 17 16 16 15 15 14 14 15 15 14 14 14 13 13 13 13 13 13 13 13 13 13 13 13
25 24 23 23 23 23 23 23 22 22 21 21 21 19 19 19 19 19 18 18 18 17 17 17 16 16 16 16 16 16 16 16 15 15 14 14 14 15 15 14 14 14 14 14
25 25 25 24 25 25 24 23 24 23 23 23 22 20 20 21 21 20 19 20 20 20 19 19 18 18 18 18 17 18 17 17 17 16 16 16 15 15 15 15 15 15 15 15
26 26 26 25 25 27 24 24 24 24 23 24 23 22 22 23 22 21 21 21 21 21 21 20 20 20 19 19 19 19 19 19 18 18 17 17 17 17 16 16 16 15 15 15
27 27 27 27 27 27 25 23 24 24 24 24 24 25 25 24 23 22 22 22 22 23 22 22 22 21 21 21 21 21 21 20 20 19 19 18 19 18 18 18 17 17 16 16
28 28 29 28 28 27 25 23 24 25 25 25 25 25 26 25 25 24 24 23 23 24 24 24 23 23 22 22 22 22 22 22 21 21 21 20 20 19 20 20 19 19 19 18
29 29 30 29 29 27 25 25 25 26 25 25 25 26 26 26 26 25 25 25 25 25 25 24 24 24 24 24 23 23 23 23 23 23 23 22 21 21 21 21 21 21 21 20
30 30 30 30 29 26 25 26 27 27 26 26 26 26 26 27 27 26 26 26 26 26 26 26 25 26 26 25 25 25 25 25 25 25 25 24 24 24 23 23 23 23 22 23
31 31 30 30 29 27 26 27 27 28 27 27 27 27 27 27 28 28 28 27 27 27 27 26 27 27 27 27 26 26 27 27 27 27 27 27 26 26 25 25 25 24 24 24
31 31 31 31 29 29 28 27 28 29 29 28 29 29 29 29 29 29 29 29 29 29 28 28 28 28 27 27 27 27 28 28 28 28 28 27 27 26 26 26 26 26 26 26
29 31 32 31 30 30 29 29 29 29 30 30 31 30 30 30 30 30 29 30 30 29 29 29 28 28 28 27 28 28 28 28 27 27 27 27 26 26 26 26 25 25 25 26
29 31 32 31 31 31 30 30 31 31 31 32 32 32 32 32 31 31 30 31 31 31 31 30 29 29 28 28 28 28 28 27 27 27 27 28 28 27 27 27 26 24 24 24